Location: Newark
(35.8833°N, 14.5000°E)
Time: 13:09:32
(UTC+00:00)

ZACube-1 - Visible Passes

Search period start: 23 October 2019 00:00
Search period end: 02 November 2019 00:00
Orbit: 585 x 666 km, 97.6° (Epoch: 22 October)

Date Brightness Start Highest point End Pass type
(mag) Time Alt. Az. Time Alt. Az. Time Alt. Az.
23 Oct ? 04:42:57 10° NE 04:46:58 30° E 04:50:58 10° SSE visible
23 Oct ? 17:11:29 10° SSW 17:15:22 37° W 17:19:21 10° NNW visible
24 Oct ? 17:31:08 10° SSW 17:34:27 23° W 17:37:51 10° NW visible
25 Oct ? 17:51:29 10° WSW 17:53:36 14° W 17:55:46 10° WNW visible
26 Oct ? 04:06:14 10° ENE 04:07:29 11° E 04:08:44 10° ESE visible
26 Oct ? 16:31:54 10° SSE 16:36:05 71° ENE 16:40:24 10° N visible
27 Oct ? 04:23:28 10° NE 04:26:39 18° E 04:29:49 10° SE visible
27 Oct ? 16:50:52 10° S 16:55:03 67° W 16:59:23 10° NNW visible
28 Oct ? 04:41:46 10° NE 04:45:47 30° E 04:49:46 10° SSE visible
28 Oct ? 17:10:09 10° SSW 17:14:06 38° W 17:18:10 10° NNW visible
29 Oct ? 17:29:48 10° SSW 17:33:12 23° W 17:36:41 10° NW visible
30 Oct ? 17:50:04 10° SW 17:52:21 14° W 17:54:39 10° WNW visible
31 Oct ? 04:05:07 10° ENE 04:06:16 11° E 04:07:25 10° ESE visible
31 Oct ? 16:30:35 10° SSE 16:34:49 71° ENE 16:39:13 10° N visible
01 Nov ? 04:22:17 10° NE 04:25:27 18° E 04:28:34 10° SE visible
01 Nov ? 16:49:32 10° S 16:53:48 68° WSW 16:58:11 10° NNW visible
